Starlink 1373

operational
NORAD ID: 45544 Int'l Des: 2020-025 Owner: SPXS Country: US Constellation: starlink
LEOCIRCULARSTARLINK_TYPE

About Starlink 1373

Description loading...

Live Position

Loading 3D Globe...

Upcoming Passes

Altitude History

Altitude vs Time

uPlot chart will show altitude changes over time

Two-Line Element Set

1 45544U 20025P 26034.01430750 .00080903 00000-0 17453-2 0 9998
2 45544 53.0516 254.7104 0003272 157.7006 202.4142 15.43872711319970
Epoch: Feb 3, 2026 • Age: 13 hours

Current Status

Altitude 435.6 km
Velocity 7.66 km/s
Sub-Earth Point 37.61°N, 63.2°E
Launch Date Apr 22, 2020
Age 5.7 years
Type internet

Technical Details

Classification Payload
Mass 260.00 kg
Dry Mass 248.00 kg
Total Mass 260.00 kg
Length 0.20 m
Diameter 2.80 m
Span 9.00 m
Shape Box + pan
Manufacturer SPXS
Bus Type Starlink
Phase Status In Orbit
Owner/State SPXS/US

Large Constellations

Loading constellations...